Location: Antoign�
(47.0844°N, 0.1131°W)
Time: 00:09:51
(UTC+00:00)

Cosmos 1666 - Pass Details

Date: 03 March 2021
Orbit: 497 x 518 km, 82.5° (Epoch: 20 April)

Event Time Altitude Azimuth Distance (km) Brightness Sun altitude
Rises 20:03:05 0° 204° (SSW) 2,573 6.3 -23.4°
Reaches altitude 10° 20:05:16 10° 211° (SSW) 1,696 5.5 -23.8°
Maximum altitude 20:08:48 42° 283° (WNW) 728 3.8 -24.3°
Drops below altitude 10° 20:12:23 10° 356° (N) 1,716 5.6 -24.9°
Sets 20:14:36 0° 4° (N) 2,609 6.5 -25.3°
